CZ-2C R/B (45722 NORAD) Tracking and Keplerian Element Data

This shows tracking and keplerian element data for the satellite.

Feedback or suggestion? Click here.




ElementValue
Catalog45722
NameCZ-2C R/B
Epoch Orbit343
Epoch Day186.54843779
Epoch Year2020
RAAN128.2143
Inclination98.5451
Eccentricity0.0052184
Argument of Perigee6.6357
Mean Anonmoly353.5515
Mean Motion14.46215881
Decay Rate-5E-08
L11 45722U 20036B 20186.54843779 -.00000005 00000-0 11704-4 0 9998
L22 45722 98.5451 128.2143 0052184 6.6357 353.5515 14.46215881 3439

Live tracking and technical data element details for CZ-2C R/B (NORAD 45722). CZ-2C R/B can be tracked NOW for your location showing map with azimuth and elevation plus other details from your city location.

Track the satellite on the map from your city or location and see movement details for azimuth, elevation, latitude, longitude, range, height, and movement on the map or in text.







IsCatalogInMostPopularTable: catalog: 45722, numindb: 3
Update: records affected: 1



GetName: 45722 CZ-2C R/B

Hit Count: updated at: Sun, 05 Jul 2020 16:36:31 GMT